QPF
0.02 0.02 0.01 0.01 0.02 0.02 0.01 0.01 0.01 0.01 0.02 0.02 0.01 0.01 0.01 0.01 0.02 0.03 0.03 0.03 0.03 0.05 0.06 0.06 0.07 0.07 0.04 0.03 0.03 0.04 0.03 0.03 0.03 0.04 0.03 0.03 0.03 0.03 0.02 0.02 0.01 0.01 0.01
0.03 0.03 0.03 0.02 0.02 0.02 0.02 0.01 0.01 0.01 0.01 0.01 0.01 0.02 0.03 0.01 0.01 0.03 0.02 0.02 0.04 0.04 0.06 0.06 0.05 0.06 0.05 0.04 0.04 0.04 0.03 0.02 0.02 0.02 0.03 0.03 0.03 0.03 0.03 0.03 0.02 0.01 0.01
0.04 0.04 0.03 0.03 0.03 0.03 0.02 0.02 0.02 0.01 0.01 0.01 0.01 0.01 0.02 0.03 0.03 0.02 0.02 0.02 0.03 0.04 0.05 0.05 0.05 0.05 0.05 0.06 0.06 0.05 0.05 0.03 0.02 0.01 0.01 0.02 0.02 0.03 0.04 0.04 0.04 0.03 0.01
0.03 0.04 0.04 0.03 0.04 0.05 0.04 0.04 0.03 0.02 0.02 0.01 0.01 0.01 0.01 0.02 0.02 0.02 0.02 0.02 0.02 0.03 0.04 0.04 0.05 0.06 0.06 0.07 0.07 0.05 0.04 0.03 0.02 0.01 0.02 0.01 0.01 0.01 0.02 0.03 0.03 0.04 0.03
0.03 0.03 0.03 0.03 0.03 0.04 0.04 0.05 0.06 0.06 0.05 0.04 0.03 0.03 0.03 0.03 0.03 0.02 0.02 0.03 0.02 0.01 0.02 0.03 0.05 0.06 0.07 0.07 0.07 0.05 0.04 0.03 0.02 0.02 0.02 0.02 0.02 0.02 0.01 0.02 0.03 0.03 0.03
0.02 0.02 0.02 0.02 0.03 0.03 0.03 0.04 0.05 0.05 0.06 0.07 0.06 0.06 0.07 0.05 0.04 0.03 0.02 0.02 0.02 0.02 0.02 0.02 0.04 0.05 0.10 0.08 0.07 0.07 0.06 0.05 0.03 0.02 0.02 0.03 0.03 0.03 0.03 0.03 0.02 0.02 0.02
0.02 0.02 0.02 0.01 0.02 0.02 0.02 0.03 0.04 0.05 0.05 0.06 0.08 0.08 0.08 0.07 0.04 0.03 0.03 0.02 0.02 0.02 0.02 0.03 0.04 0.05 0.05 0.03 0.04 0.05 0.07 0.07 0.06 0.04 0.03 0.03 0.03 0.03 0.03 0.03 0.03 0.02 0.03
0.04 0.03 0.03 0.02 0.02 0.02 0.03 0.03 0.03 0.04 0.04 0.05 0.07 0.10 0.09 0.08 0.05 0.04 0.03 0.03 0.02 0.02 0.03 0.03 0.03 0.05 0.04 0.03 0.02 0.03 0.05 0.07 0.07 0.06 0.05 0.04 0.03 0.03 0.03 0.03 0.02 0.02 0.03
0.04 0.04 0.04 0.04 0.04 0.03 0.03 0.03 0.03 0.03 0.04 0.04 0.04 0.05 0.07 0.06 0.04 0.04 0.03 0.03 0.03 0.02 0.02 0.02 0.02 0.02 0.02 0.02 0.02 0.03 0.03 0.05 0.06 0.07 0.07 0.06 0.04 0.04 0.04 0.04 0.03 0.03 0.02
0.04 0.04 0.04 0.04 0.05 0.05 0.05 0.04 0.03 0.03 0.04 0.04 0.04 0.04 0.03 0.03 0.03 0.04 0.03 0.03 0.03 0.02 0.02 0.02 0.02 0.02 0.01 0.01 0.02 0.02 0.02 0.03 0.05 0.06 0.07 0.08 0.07 0.06 0.07 0.07 0.05 0.04 0.03
0.06 0.05 0.05 0.04 0.04 0.05 0.06 0.06 0.05 0.04 0.04 0.04 0.04 0.04 0.04 0.03 0.03 0.04 0.04 0.04 0.04 0.04 0.03 0.03 0.02 0.02 0.02 0.02 0.02 0.02 0.02 0.02 0.03 0.04 0.07 0.08 0.08 0.08 0.07 0.08 0.08 0.06 0.04
0.06 0.07 0.08 0.06 0.04 0.04 0.06 0.07 0.07 0.05 0.04 0.04 0.04 0.03 0.03 0.03 0.04 0.04 0.05 0.05 0.05 0.05 0.05 0.05 0.04 0.04 0.03 0.02 0.02 0.02 0.02 0.02 0.01 0.02 0.05 0.06 0.07 0.07 0.07 0.08 0.08 0.07 0.06
0.08 0.07 0.08 0.08 0.06 0.05 0.06 0.07 0.07 0.06 0.05 0.04 0.03 0.03 0.02 0.02 0.02 0.03 0.04 0.05 0.05 0.04 0.04 0.05 0.06 0.05 0.04 0.03 0.02 0.02 0.02 0.02 0.02 0.02 0.04 0.05 0.05 0.06 0.06 0.06 0.07 0.07 0.06
0.14 0.11 0.08 0.08 0.07 0.07 0.07 0.08 0.07 0.06 0.05 0.04 0.04 0.04 0.03 0.02 0.02 0.02 0.03 0.04 0.04 0.03 0.03 0.03 0.03 0.04 0.06 0.06 0.04 0.03 0.02 0.02 0.02 0.02 0.03 0.04 0.05 0.05 0.05 0.05 0.07 0.08 0.06
0.15 0.16 0.17 0.14 0.11 0.09 0.08 0.08 0.08 0.06 0.06 0.05 0.04 0.04 0.03 0.02 0.02 0.02 0.02 0.03 0.04 0.05 0.04 0.02 0.02 0.02 0.03 0.04 0.06 0.05 0.03 0.02 0.02 0.02 0.02 0.02 0.03 0.03 0.03 0.03 0.05 0.08 0.07
0.12 0.14 0.16 0.18 0.19 0.19 0.16 0.13 0.11 0.07 0.06 0.05 0.05 0.04 0.02 0.01 0.01 0.01 0.02 0.02 0.02 0.03 0.04 0.04 0.02 0.02 0.02 0.02 0.03 0.03 0.03 0.03 0.02 0.02 0.02 0.02 0.02 0.02 0.03 0.03 0.03 0.05 0.06
0.09 0.09 0.10 0.10 0.13 0.17 0.18 0.17 0.17 0.14 0.09 0.06 0.04 0.03 0.02 0.01 0.01 0.01 0.01 0.01 0.01 0.02 0.02 0.02 0.03 0.03 0.03 0.04 0.04 0.04 0.03 0.03 0.03 0.03 0.02 0.02 0.02 0.02 0.02 0.02 0.03 0.03 0.04
0.05 0.06 0.06 0.06 0.07 0.09 0.10 0.11 0.11 0.12 0.12 0.10 0.06 0.04 0.03 0.02 0.02 0.01 0.01 0.01 0.01 0.01 0.01 0.01 0.01 0.02 0.04 0.05 0.04 0.05 0.05 0.04 0.03 0.03 0.03 0.02 0.02 0.02 0.02 0.02 0.02 0.03 0.03
0.05 0.05 0.06 0.06 0.06 0.06 0.06 0.07 0.06 0.06 0.06 0.06 0.06 0.06 0.05 0.04 0.04 0.03 0.02 0.02 0.01 0.01 0.01 0.01 0.01 0.01 0.02 0.03 0.04 0.05 0.04 0.04 0.04 0.03 0.03 0.04 0.03 0.03 0.03 0.02 0.02 0.03 0.03
0.06 0.08 0.07 0.07 0.07 0.06 0.06 0.06 0.05 0.06 0.04 0.03 0.04 0.04 0.04 0.04 0.04 0.04 0.04 0.03 0.03 0.02 0.02 0.02 0.02 0.02 0.01 0.01 0.02 0.03 0.04 0.03 0.03 0.03 0.03 0.04 0.04 0.03 0.03 0.03 0.03 0.03 0.03
0.06 0.08 0.09 0.08 0.09 0.08 0.08 0.08 0.07 0.06 0.05 0.04 0.03 0.03 0.03 0.03 0.04 0.03 0.04 0.04 0.04 0.04 0.03 0.03 0.02 0.02 0.01 0.01 0.01 0.01 0.02 0.03 0.03 0.02 0.02 0.02 0.02 0.02 0.02 0.03 0.03 0.03 0.03
0.06 0.08 0.10 0.09 0.09 0.09 0.11 0.10 0.08 0.06 0.05 0.04 0.04 0.03 0.03 0.03 0.03 0.03 0.03 0.03 0.04 0.04 0.04 0.03 0.03 0.02 0.01 0.01 0.01 0.01 0.01 0.01 0.03 0.02 0.01 0.02 0.02 0.02 0.02 0.02 0.03 0.03 0.03
0.06 0.07 0.08 0.09 0.09 0.09 0.09 0.09 0.08 0.06 0.06 0.05 0.04 0.03 0.03 0.03 0.03 0.03 0.03 0.03 0.03 0.03 0.03 0.03 0.03 0.02 0.01 0.01 0.01 0.01 0.01 0.01 0.01 0.01 0.02 0.02 0.02 0.02 0.02 0.03 0.03 0.03 0.04
0.06 0.07 0.08 0.08 0.09 0.09 0.09 0.09 0.08 0.07 0.07 0.05 0.04 0.03 0.03 0.02 0.02 0.03 0.03 0.03 0.03 0.02 0.02 0.02 0.01 0.01 0.01 0.02 0.02 0.02 0.02 0.02 0.01 0.01 0.01 0.02 0.02 0.02 0.03 0.03 0.04 0.04 0.05
0.05 0.06 0.07 0.08 0.08 0.09 0.09 0.09 0.09 0.08 0.07 0.07 0.05 0.04 0.02 0.02 0.02 0.03 0.03 0.03 0.03 0.03 0.03 0.03 0.03 0.02 0.02 0.03 0.03 0.03 0.04 0.04 0.03 0.03 0.02 0.02 0.02 0.02 0.03 0.04 0.05 0.05 0.05
0.05 0.05 0.05 0.06 0.06 0.06 0.07 0.08 0.07 0.07 0.06 0.06 0.05 0.04 0.03 0.02 0.03 0.02 0.02 0.03 0.04 0.04 0.03 0.03 0.03 0.02 0.02 0.03 0.04 0.03 0.03 0.03 0.03 0.04 0.03 0.02 0.02 0.02 0.03 0.04 0.04 0.04 0.04
MSLP
1025.86 1025.20 1024.48 1023.75 1023.06 1022.43 1021.89 1021.42 1021.00 1020.60 1020.19 1019.76 1019.30 1018.84 1018.39 1017.99 1017.64 1017.36 1017.14 1016.96 1016.79 1016.64 1016.49 1016.35 1016.25 1016.23 1016.29 1016.46 1016.73 1017.07 1017.46 1017.86 1018.23 1018.56 1018.83 1019.05 1019.25 1019.44 1019.64 1019.86 1020.10 1020.35 1020.60
1026.42 1025.71 1024.93 1024.15 1023.41 1022.73 1022.15 1021.63 1021.17 1020.73 1020.27 1019.78 1019.27 1018.75 1018.26 1017.81 1017.43 1017.13 1016.89 1016.69 1016.51 1016.34 1016.15 1015.98 1015.85 1015.78 1015.79 1015.92 1016.16 1016.49 1016.88 1017.30 1017.70 1018.07 1018.39 1018.66 1018.89 1019.10 1019.32 1019.54 1019.78 1020.03 1020.27
1026.92 1026.18 1025.38 1024.58 1023.81 1023.11 1022.50 1021.94 1021.42 1020.91 1020.38 1019.82 1019.23 1018.63 1018.07 1017.57 1017.14 1016.81 1016.54 1016.32 1016.13 1015.94 1015.75 1015.56 1015.40 1015.30 1015.29 1015.39 1015.60 1015.92 1016.30 1016.72 1017.15 1017.54 1017.89 1018.19 1018.45 1018.68 1018.90 1019.13 1019.37 1019.61 1019.85
1027.36 1026.63 1025.84 1025.04 1024.28 1023.58 1022.94 1022.35 1021.77 1021.18 1020.56 1019.89 1019.20 1018.51 1017.86 1017.28 1016.79 1016.41 1016.11 1015.87 1015.67 1015.48 1015.29 1015.11 1014.95 1014.85 1014.83 1014.92 1015.11 1015.40 1015.77 1016.18 1016.59 1016.99 1017.34 1017.65 1017.92 1018.16 1018.39 1018.61 1018.85 1019.08 1019.32
1027.75 1027.04 1026.29 1025.53 1024.81 1024.12 1023.47 1022.85 1022.21 1021.54 1020.81 1020.03 1019.23 1018.43 1017.68 1017.01 1016.44 1015.99 1015.65 1015.38 1015.16 1014.98 1014.80 1014.64 1014.51 1014.43 1014.43 1014.52 1014.70 1014.97 1015.31 1015.69 1016.07 1016.44 1016.77 1017.06 1017.32 1017.55 1017.77 1017.99 1018.21 1018.44 1018.67
1028.09 1027.42 1026.72 1026.02 1025.35 1024.69 1024.05 1023.40 1022.71 1021.95 1021.13 1020.25 1019.33 1018.42 1017.57 1016.80 1016.15 1015.62 1015.22 1014.91 1014.67 1014.48 1014.33 1014.20 1014.11 1014.07 1014.10 1014.20 1014.38 1014.64 1014.94 1015.27 1015.60 1015.91 1016.19 1016.44 1016.67 1016.88 1017.08 1017.28 1017.49 1017.71 1017.93
1028.39 1027.76 1027.12 1026.49 1025.86 1025.25 1024.62 1023.95 1023.22 1022.40 1021.50 1020.53 1019.53 1018.53 1017.58 1016.72 1015.99 1015.38 1014.90 1014.54 1014.26 1014.05 1013.90 1013.80 1013.75 1013.75 1013.82 1013.96 1014.15 1014.38 1014.65 1014.92 1015.18 1015.43 1015.64 1015.84 1016.02 1016.19 1016.36 1016.55 1016.74 1016.94 1017.16
1028.66 1028.06 1027.47 1026.89 1026.33 1025.75 1025.14 1024.47 1023.71 1022.85 1021.90 1020.88 1019.81 1018.76 1017.75 1016.82 1016.00 1015.31 1014.75 1014.30 1013.96 1013.71 1013.54 1013.45 1013.43 1013.48 1013.59 1013.75 1013.95 1014.18 1014.41 1014.63 1014.83 1015.00 1015.15 1015.28 1015.41 1015.55 1015.69 1015.86 1016.03 1016.22 1016.43
1028.90 1028.31 1027.76 1027.22 1026.70 1026.15 1025.55 1024.88 1024.12 1023.25 1022.28 1021.25 1020.17 1019.10 1018.06 1017.09 1016.21 1015.44 1014.78 1014.24 1013.81 1013.49 1013.27 1013.16 1013.15 1013.22 1013.36 1013.55 1013.77 1013.99 1014.20 1014.38 1014.53 1014.64 1014.73 1014.81 1014.90 1015.00 1015.13 1015.28 1015.45 1015.62 1015.81
1029.10 1028.52 1027.98 1027.47 1026.96 1026.43 1025.84 1025.17 1024.41 1023.55 1022.60 1021.60 1020.55 1019.50 1018.47 1017.49 1016.56 1015.72 1014.97 1014.32 1013.78 1013.36 1013.07 1012.91 1012.87 1012.95 1013.11 1013.33 1013.57 1013.80 1014.00 1014.16 1014.27 1014.35 1014.40 1014.45 1014.52 1014.61 1014.72 1014.87 1015.03 1015.20 1015.38
1029.27 1028.68 1028.14 1027.63 1027.12 1026.58 1025.98 1025.31 1024.56 1023.73 1022.82 1021.87 1020.90 1019.90 1018.91 1017.94 1016.99 1016.09 1015.24 1014.48 1013.82 1013.28 1012.90 1012.66 1012.59 1012.66 1012.83 1013.06 1013.33 1013.58 1013.79 1013.95 1014.06 1014.12 1014.16 1014.20 1014.26 1014.36 1014.48 1014.63 1014.79 1014.96 1015.13
1029.42 1028.81 1028.26 1027.72 1027.18 1026.61 1025.99 1025.30 1024.56 1023.76 1022.91 1022.03 1021.14 1020.22 1019.29 1018.35 1017.40 1016.44 1015.51 1014.64 1013.86 1013.20 1012.71 1012.40 1012.28 1012.32 1012.50 1012.76 1013.05 1013.33 1013.57 1013.75 1013.87 1013.95 1014.00 1014.05 1014.13 1014.24 1014.38 1014.54 1014.71 1014.89 1015.05
1029.52 1028.91 1028.32 1027.75 1027.16 1026.54 1025.88 1025.17 1024.42 1023.64 1022.85 1022.04 1021.23 1020.40 1019.54 1018.64 1017.69 1016.70 1015.70 1014.73 1013.83 1013.07 1012.48 1012.10 1011.93 1011.95 1012.13 1012.42 1012.74 1013.07 1013.35 1013.56 1013.72 1013.82 1013.90 1013.98 1014.08 1014.21 1014.37 1014.55 1014.73 1014.91 1015.07
1029.60 1028.97 1028.35 1027.73 1027.08 1026.40 1025.68 1024.92 1024.16 1023.39 1022.64 1021.90 1021.16 1020.41 1019.61 1018.74 1017.80 1016.79 1015.73 1014.68 1013.70 1012.85 1012.18 1011.74 1011.54 1011.55 1011.74 1012.06 1012.42 1012.80 1013.12 1013.39 1013.58 1013.72 1013.83 1013.94 1014.06 1014.22 1014.39 1014.59 1014.78 1014.96 1015.11
1029.65 1029.01 1028.36 1027.68 1026.97 1026.21 1025.42 1024.62 1023.82 1023.06 1022.33 1021.63 1020.95 1020.25 1019.50 1018.66 1017.73 1016.69 1015.60 1014.49 1013.44 1012.53 1011.81 1011.33 1011.10 1011.12 1011.33 1011.68 1012.10 1012.52 1012.90 1013.22 1013.46 1013.64 1013.78 1013.91 1014.05 1014.22 1014.41 1014.60 1014.80 1014.97 1015.10
1029.67 1029.02 1028.34 1027.61 1026.83 1026.01 1025.15 1024.30 1023.47 1022.69 1021.96 1021.29 1020.64 1019.98 1019.25 1018.43 1017.49 1016.44 1015.31 1014.16 1013.06 1012.11 1011.35 1010.85 1010.63 1010.66 1010.90 1011.30 1011.76 1012.24 1012.68 1013.05 1013.33 1013.55 1013.72 1013.87 1014.02 1014.19 1014.38 1014.56 1014.74 1014.88 1014.99
1029.66 1029.01 1028.30 1027.53 1026.70 1025.81 1024.91 1024.01 1023.14 1022.35 1021.62 1020.95 1020.31 1019.65 1018.93 1018.11 1017.16 1016.08 1014.92 1013.73 1012.61 1011.62 1010.84 1010.33 1010.11 1010.16 1010.44 1010.87 1011.39 1011.93 1012.42 1012.84 1013.18 1013.43 1013.63 1013.80 1013.96 1014.12 1014.29 1014.45 1014.59 1014.70 1014.76
1029.62 1028.96 1028.24 1027.44 1026.57 1025.65 1024.71 1023.78 1022.89 1022.08 1021.34 1020.67 1020.02 1019.36 1018.62 1017.78 1016.80 1015.69 1014.49 1013.27 1012.11 1011.09 1010.29 1009.77 1009.54 1009.61 1009.91 1010.38 1010.95 1011.54 1012.10 1012.58 1012.97 1013.27 1013.51 1013.70 1013.87 1014.02 1014.17 1014.30 1014.39 1014.45 1014.45
1029.54 1028.89 1028.16 1027.35 1026.46 1025.53 1024.57 1023.62 1022.73 1021.90 1021.16 1020.48 1019.82 1019.13 1018.37 1017.49 1016.47 1015.32 1014.08 1012.81 1011.61 1010.55 1009.71 1009.16 1008.92 1008.98 1009.29 1009.78 1010.40 1011.04 1011.67 1012.22 1012.69 1013.06 1013.35 1013.58 1013.76 1013.92 1014.04 1014.14 1014.18 1014.18 1014.11
1029.41 1028.77 1028.05 1027.25 1026.36 1025.43 1024.47 1023.53 1022.63 1021.81 1021.06 1020.37 1019.69 1018.98 1018.19 1017.27 1016.21 1015.01 1013.71 1012.39 1011.13 1010.01 1009.12 1008.52 1008.23 1008.26 1008.56 1009.07 1009.71 1010.42 1011.11 1011.76 1012.31 1012.77 1013.14 1013.43 1013.65 1013.82 1013.94 1014.01 1014.01 1013.95 1013.82
1029.24 1028.62 1027.91 1027.12 1026.26 1025.33 1024.39 1023.46 1022.57 1021.76 1021.01 1020.30 1019.61 1018.88 1018.06 1017.10 1016.00 1014.75 1013.40 1012.02 1010.69 1009.50 1008.53 1007.85 1007.50 1007.47 1007.74 1008.24 1008.90 1009.66 1010.43 1011.17 1011.83 1012.40 1012.87 1013.25 1013.54 1013.75 1013.88 1013.94 1013.92 1013.82 1013.63
1029.01 1028.42 1027.74 1026.97 1026.12 1025.22 1024.29 1023.37 1022.49 1021.68 1020.93 1020.22 1019.51 1018.77 1017.92 1016.94 1015.81 1014.53 1013.13 1011.69 1010.29 1009.02 1007.96 1007.19 1006.75 1006.64 1006.85 1007.32 1007.99 1008.79 1009.64 1010.48 1011.26 1011.95 1012.55 1013.03 1013.41 1013.69 1013.86 1013.94 1013.92 1013.80 1013.59
1028.74 1028.17 1027.51 1026.77 1025.94 1025.05 1024.13 1023.22 1022.35 1021.53 1020.78 1020.06 1019.35 1018.59 1017.74 1016.75 1015.61 1014.31 1012.89 1011.41 1009.94 1008.60 1007.45 1006.58 1006.03 1005.84 1005.97 1006.39 1007.05 1007.87 1008.78 1009.72 1010.62 1011.44 1012.17 1012.77 1013.26 1013.62 1013.86 1013.98 1013.99 1013.90 1013.70
1028.42 1027.88 1027.24 1026.52 1025.70 1024.82 1023.90 1022.98 1022.10 1021.28 1020.51 1019.79 1019.07 1018.32 1017.47 1016.50 1015.37 1014.08 1012.66 1011.16 1009.67 1008.27 1007.05 1006.08 1005.43 1005.13 1005.18 1005.54 1006.16 1006.98 1007.93 1008.94 1009.94 1010.88 1011.73 1012.46 1013.05 1013.52 1013.84 1014.04 1014.11 1014.07 1013.94
1028.06 1027.55 1026.93 1026.22 1025.40 1024.52 1023.59 1022.66 1021.76 1020.91 1020.13 1019.40 1018.69 1017.94 1017.13 1016.19 1015.10 1013.85 1012.47 1010.99 1009.50 1008.07 1006.80 1005.76 1005.02 1004.62 1004.57 1004.85 1005.41 1006.20 1007.16 1008.20 1009.26 1010.29 1011.24 1012.07 1012.77 1013.34 1013.76 1014.05 1014.22 1014.28 1014.25
1027.69 1027.19 1026.58 1025.87 1025.06 1024.16 1023.22 1022.27 1021.35 1020.48 1019.69 1018.95 1018.24 1017.52 1016.74 1015.86 1014.83 1013.65 1012.33 1010.91 1009.46 1008.04 1006.74 1005.65 1004.84 1004.35 1004.20 1004.38 1004.86 1005.59 1006.50 1007.54 1008.62 1009.69 1010.69 1011.60 1012.39 1013.05 1013.58 1013.98 1014.26 1014.45 1014.56
Thickness
5624 5625 5626 5627 5628 5630 5632 5633 5634 5635 5637 5638 5639 5640 5641 5643 5644 5646 5647 5649 5650 5651 5652 5652 5653 5653 5652 5652 5652 5651 5651 5650 5649 5649 5648 5647 5647 5646 5645 5644 5643 5642 5641
5616 5617 5618 5619 5620 5622 5623 5625 5626 5627 5629 5630 5631 5632 5634 5636 5637 5639 5640 5642 5643 5644 5645 5646 5647 5647 5647 5647 5646 5646 5645 5644 5643 5643 5642 5642 5641 5640 5639 5638 5637 5637 5636
5608 5609 5609 5610 5612 5613 5615 5616 5618 5619 5620 5622 5623 5625 5626 5628 5630 5632 5634 5635 5637 5638 5639 5640 5640 5641 5641 5641 5640 5640 5639 5638 5638 5637 5637 5636 5635 5634 5634 5633 5632 5631 5630
5598 5599 5601 5602 5603 5604 5606 5607 5609 5610 5611 5613 5615 5617 5618 5620 5623 5625 5627 5628 5630 5631 5632 5633 5634 5634 5635 5634 5634 5634 5633 5632 5632 5631 5631 5630 5629 5629 5628 5627 5626 5625 5625
5588 5589 5591 5593 5594 5595 5596 5598 5599 5601 5602 5604 5606 5608 5610 5613 5615 5617 5619 5621 5623 5624 5625 5626 5627 5627 5628 5628 5628 5628 5627 5626 5626 5625 5625 5624 5624 5623 5622 5622 5621 5620 5619
5578 5580 5581 5583 5585 5586 5587 5588 5590 5591 5593 5595 5598 5599 5601 5604 5606 5609 5611 5613 5615 5616 5618 5619 5620 5620 5620 5621 5621 5621 5621 5621 5620 5620 5619 5619 5618 5617 5617 5616 5616 5615 5613
5568 5570 5572 5573 5575 5577 5578 5579 5581 5581 5583 5585 5588 5589 5592 5595 5598 5600 5602 5604 5606 5608 5609 5611 5612 5613 5613 5614 5614 5615 5615 5615 5615 5614 5614 5613 5612 5612 5611 5610 5610 5609 5608
5558 5560 5562 5564 5565 5567 5568 5570 5571 5572 5573 5576 5578 5580 5581 5584 5587 5591 5593 5595 5597 5599 5601 5602 5603 5604 5605 5606 5607 5608 5608 5609 5609 5608 5608 5607 5607 5606 5605 5605 5604 5603 5602
5548 5550 5552 5554 5556 5557 5559 5561 5562 5564 5565 5566 5569 5572 5574 5576 5576 5580 5583 5586 5589 5591 5592 5594 5595 5596 5597 5598 5599 5600 5601 5602 5602 5602 5601 5601 5601 5600 5599 5599 5598 5597 5596
5537 5539 5541 5543 5545 5547 5550 5551 5553 5556 5557 5558 5559 5563 5566 5569 5569 5571 5573 5576 5579 5581 5583 5585 5586 5587 5589 5590 5591 5592 5593 5594 5594 5595 5595 5595 5594 5594 5593 5592 5592 5591 5590
5525 5527 5529 5532 5534 5537 5539 5541 5543 5545 5548 5550 5552 5553 5555 5558 5561 5563 5565 5566 5568 5571 5573 5575 5577 5579 5580 5582 5583 5584 5585 5586 5586 5587 5588 5588 5588 5587 5587 5586 5585 5584 5583
5512 5514 5517 5519 5522 5525 5529 5531 5532 5535 5538 5541 5543 5546 5548 5550 5552 5554 5555 5556 5558 5560 5563 5566 5568 5570 5571 5573 5574 5575 5576 5577 5578 5579 5580 5580 5580 5580 5579 5579 5578 5577 5575
5499 5502 5504 5507 5510 5514 5517 5520 5521 5524 5527 5530 5533 5536 5540 5543 5545 5546 5547 5547 5548 5551 5553 5556 5559 5561 5562 5564 5565 5566 5567 5568 5569 5570 5571 5571 5572 5571 5571 5570 5569 5569 5567
5486 5490 5492 5495 5498 5501 5505 5508 5510 5513 5516 5519 5523 5526 5529 5533 5536 5538 5539 5539 5539 5541 5543 5547 5549 5551 5553 5555 5556 5557 5558 5559 5559 5560 5561 5562 5562 5562 5562 5561 5561 5560 5559
5473 5477 5480 5483 5486 5488 5492 5496 5499 5502 5505 5508 5512 5514 5518 5522 5525 5528 5530 5532 5533 5534 5536 5538 5540 5542 5544 5545 5547 5548 5549 5550 5550 5551 5551 5552 5552 5553 5553 5552 5552 5551 5550
5459 5463 5466 5469 5473 5476 5480 5483 5487 5491 5494 5497 5500 5504 5508 5511 5514 5517 5520 5522 5525 5527 5528 5531 5531 5533 5534 5535 5537 5538 5540 5540 5541 5542 5542 5542 5543 5543 5543 5543 5542 5542 5541
5445 5449 5452 5456 5460 5464 5467 5472 5476 5480 5483 5487 5490 5493 5497 5500 5503 5506 5509 5512 5514 5516 5518 5520 5520 5522 5524 5525 5526 5528 5529 5530 5531 5532 5533 5533 5533 5533 5533 5533 5532 5532 5531
5431 5435 5440 5444 5448 5452 5455 5459 5465 5469 5473 5476 5479 5483 5486 5489 5492 5495 5498 5500 5503 5506 5507 5509 5509 5511 5513 5514 5516 5517 5518 5520 5521 5522 5523 5523 5523 5522 5522 5522 5521 5521 5520
5418 5423 5427 5432 5436 5440 5445 5449 5453 5458 5462 5466 5469 5472 5475 5478 5481 5484 5487 5489 5491 5495 5497 5499 5500 5500 5502 5503 5504 5505 5507 5508 5510 5511 5511 5512 5512 5511 5511 5511 5511 5510 5510
5407 5412 5416 5421 5425 5429 5434 5438 5442 5446 5450 5454 5458 5461 5464 5467 5471 5474 5476 5479 5481 5483 5485 5487 5489 5490 5491 5491 5492 5493 5495 5496 5498 5499 5499 5499 5500 5500 5500 5500 5500 5500 5499
5395 5400 5405 5409 5414 5418 5423 5427 5431 5435 5439 5442 5446 5449 5452 5457 5461 5463 5466 5468 5470 5473 5475 5477 5478 5480 5480 5481 5482 5483 5483 5484 5485 5486 5487 5487 5488 5488 5488 5489 5489 5488 5488
5382 5388 5394 5398 5403 5408 5412 5417 5421 5424 5428 5431 5434 5437 5441 5445 5448 5452 5455 5458 5461 5463 5466 5467 5469 5470 5472 5472 5472 5472 5472 5473 5473 5474 5474 5475 5475 5476 5476 5477 5477 5477 5476
5370 5376 5381 5386 5392 5397 5401 5406 5410 5413 5416 5420 5423 5426 5429 5433 5436 5440 5443 5447 5450 5453 5456 5458 5460 5461 5461 5463 5462 5461 5461 5461 5463 5463 5461 5462 5462 5463 5464 5465 5466 5466 5465
5358 5363 5369 5375 5380 5385 5390 5394 5398 5401 5405 5409 5413 5417 5420 5423 5426 5429 5432 5435 5439 5442 5445 5447 5450 5452 5452 5452 5452 5452 5452 5451 5450 5450 5450 5450 5450 5450 5452 5452 5453 5453 5453
5346 5351 5357 5363 5368 5374 5378 5383 5387 5390 5394 5398 5402 5406 5410 5413 5417 5420 5423 5426 5428 5431 5434 5436 5438 5440 5441 5442 5441 5440 5439 5439 5439 5438 5437 5438 5438 5437 5438 5439 5439 5438 5438
5333 5340 5346 5351 5356 5362 5367 5372 5376 5380 5384 5387 5391 5395 5399 5403 5407 5410 5413 5415 5418 5420 5422 5424 5426 5427 5429 5430 5430 5431 5431 5429 5427 5427 5426 5426 5425 5424 5424 5425 5424 5423 5422